This demonstration page uses our WeatherBlox Daily Observations layout. Learn more.

Left ArrowRight Arrow

47.50024, -111.30081

Hourly Observations for January 28, 2016

Temp ( °F °C ) Dew Point ( °F °C ) Humidity (%) Winds ( mph kmh ) Pressure ( in mb ) Visibility ( mi km ) Precip ( " mm )
12:53 am 00:53 Clear 46 7.8 34 1.1 63 63 SW 24 39 30.00 1016 10 16 0.00 0.00
1:53 am 01:53 Clear 46 7.8 33 0.6 61 61 SW 23 37 29.99 1016 10 16 0.00 0.00
2:53 am 02:53 Clear 46 7.8 32 0 58 58 SW 26 43 29.98 1015 10 16 0.00 0.00
3:53 am 03:53 Clear 46 7.8 32 0 58 58 SW 24 39 29.96 1014 10 16 0.00 0.00
4:53 am 04:53 Clear 47 8.3 32 0 56 56 SSW 24 39 29.93 1014 10 16 0.00 0.00
5:53 am 05:53 Clear 47 8.3 31 -0.6 54 54 SSW 23 37 29.92 1013 10 16 0.00 0.00
6:53 am 06:53 Clear 47 8.3 31 -0.6 54 54 SSW 29 46 29.90 1012 10 16 0.00 0.00
7:53 am 07:53 Clear 48 8.9 30 -1.1 50 50 SW 25 41 29.89 1012 10 16 0.00 0.00
8:53 am 08:53 Sunny 48 8.9 29 -1.7 48 48 SW 16 26 29.88 1012 10 16 0.00 0.00
9:53 am 09:53 Sunny 53 11.7 28 -2.2 38 38 SW 22 35 29.83 1010 10 16 0.00 0.00
10:53 am 10:53 Sunny 55 12.8 27 -2.8 34 34 SW 33 54 29.78 1008 10 16 0.00 0.00
11:53 am 11:53 Sunny 55 12.8 27 -2.8 34 34 SSW 26 43 29.76 1008 10 16 0.00 0.00
12:53 pm 12:53 Sunny 55 12.8 26 -3.3 33 33 SW 31 50 29.72 1006 10 16 0.00 0.00
1:53 pm 13:53 Sunny 56 13.3 27 -2.8 33 33 SW 25 41 29.68 1005 10 16 0.00 0.00
2:53 pm 14:53 Sunny 57 13.9 26 -3.3 30 30 SW 25 41 29.65 1004 10 16 0.00 0.00
3:53 pm 15:53 Sunny 56 13.3 25 -3.9 30 30 SW 31 50 29.63 1004 10 16 0.00 0.00
4:53 pm 16:53 Sunny 52 11.1 27 -2.8 38 38 SW 20 31 29.65 1004 10 16 0.00 0.00
5:53 pm 17:53 Clear 49 9.4 27 -2.8 43 43 SW 20 31 29.65 1004 10 16 0.00 0.00
6:53 pm 18:53 Clear 47 8.3 29 -1.7 50 50 SW 23 37 29.66 1005 10 16 0.00 0.00
7:53 pm 19:53 Clear 46 7.8 30 -1.1 54 54 SW 24 39 29.66 1004 10 16 0.00 0.00
8:53 pm 20:53 Clear 45 7.2 31 -0.6 58 58 SW 24 39 29.64 1004 10 16 0.00 0.00
9:53 pm 21:53 Clear 45 7.2 31 -0.6 58 58 SW 21 33 29.65 1004 10 16 0.00 0.00
10:53 pm 22:53 Clear 44 6.7 31 -0.6 60 60 SW 21 33 29.66 1005 10 16 0.00 0.00
11:53 pm 23:53 Mostly Clear 43 6.1 30 -1.1 60 60 SW 22 35 29.68 1005 10 16 0.00 0.00

Powered by AerisWeather